| time (UTC) | temp F | wind direction | speed knots | gust knots | rain 1hr in | rain 24hr in | rain mn in | humidity % | barometer mb |
| 20260507011544 | 58 | 288 | 5.2 | 7.8 | 0.00 | 0.22 | 0.22 | 76 | 1010.6 |
| 20260507011043 | 59 | 300 | 3.5 | 8.7 | 0.00 | 0.22 | 0.22 | 76 | 1010.5 |
| 20260507010540 | 59 | 279 | 2.6 | 9.6 | 0.00 | 0.22 | 0.22 | 76 | 1010.5 |
| 20260507010034 | 59 | 299 | 5.2 | 9.6 | 0.00 | 0.22 | 0.22 | 76 | 1010.5 |
| 20260507005525 | 59 | 284 | 3.5 | 7.8 | 0.00 | 0.22 | 0.22 | 76 | 1010.7 |
| 20260507005104 | 59 | 260 | 3.5 | 7.8 | 0.00 | 0.22 | 0.22 | 76 | 1010.9 |
| 20260507004535 | 59 | 282 | 4.3 | 7.8 | 0.00 | 0.22 | 0.22 | 75 | 1010.6 |
| 20260507004029 | 59 | 284 | 4.3 | 8.7 | 0.00 | 0.22 | 0.22 | 76 | 1010.5 |
| 20260507003545 | 60 | 259 | 4.3 | 11.3 | 0.00 | 0.22 | 0.22 | 75 | 1010.5 |
| 20260507003043 | 60 | 294 | 4.3 | 11.3 | 0.00 | 0.22 | 0.22 | 75 | 1010.4 |
| 20260507002540 | 60 | 286 | 5.2 | 10.4 | 0.00 | 0.22 | 0.22 | 75 | 1010.2 |
| 20260507002041 | 60 | 298 | 6.1 | 10.4 | 0.00 | 0.22 | 0.22 | 75 | 1010.0 |
| 20260507001533 | 60 | 295 | 5.2 | 9.6 | 0.00 | 0.22 | 0.22 | 75 | 1010.1 |
| 20260507001032 | 60 | 306 | 2.6 | 10.4 | 0.00 | 0.22 | 0.22 | 76 | 1009.9 |
| 20260507000527 | 61 | 329 | 4.3 | 12.2 | 0.00 | 0.22 | 0.22 | 75 | 1010.0 |
| 20260507000045 | 61 | 282 | 6.1 | 12.2 | 0.00 | 0.22 | 0.22 | 76 | 1010.1 |
| 20260506235540 | 61 | 292 | 6.1 | 12.2 | 0.00 | 0.22 | 0.22 | 75 | 1010.0 |
| 20260506235040 | 61 | 295 | 3.5 | 12.2 | 0.00 | 0.22 | 0.22 | 75 | 1009.6 |
| 20260506234525 | 62 | 297 | 6.1 | 13.9 | 0.00 | 0.22 | 0.22 | 75 | 1009.6 |
| 20260506234042 | 62 | 306 | 7.0 | 13.9 | 0.00 | 0.22 | 0.22 | 75 | 1009.1 |
| 20260506233533 | 62 | 323 | 6.1 | 7.8 | 0.00 | 0.22 | 0.22 | 76 | 1009.0 |
| 20260506233049 | 62 | 302 | 2.6 | 8.7 | 0.00 | 0.22 | 0.22 | 76 | 1009.1 |
| 20260506232539 | 62 | 259 | 3.5 | 8.7 | 0.00 | 0.22 | 0.22 | 75 | 1008.9 |
| 20260506232057 | 62 | 258 | 4.3 | 9.6 | 0.00 | 0.22 | 0.22 | 74 | 1008.8 |
| 20260506231528 | 62 | 309 | 4.3 | 9.6 | 0.00 | 0.22 | 0.22 | 75 | 1008.8 |
| 20260506231043 | 63 | 309 | 3.5 | 10.4 | 0.00 | 0.22 | 0.22 | 75 | 1008.8 |
| 20260506230601 | 63 | 294 | 5.2 | 10.4 | 0.00 | 0.22 | 0.22 | 75 | 1008.8 |
| 20260506230059 | 63 | 321 | 5.2 | 8.7 | 0.00 | 0.22 | 0.22 | 75 | 1008.8 |
| 20260506225528 | 63 | 277 | 4.3 | 8.7 | 0.00 | 0.22 | 0.22 | 76 | 1008.8 |
| 20260506225045 | 63 | 305 | 3.5 | 7.8 | 0.00 | 0.22 | 0.22 | 77 | 1008.7 |
| 20260506224544 | 63 | 293 | 1.7 | 7.8 | 0.00 | 0.22 | 0.22 | 77 | 1008.7 |
| 20260506224042 | 63 | 315 | 2.6 | 9.6 | 0.00 | 0.22 | 0.22 | 76 | 1008.6 |
| 20260506223540 | 63 | 282 | 6.1 | 9.6 | 0.00 | 0.22 | 0.22 | 76 | 1008.6 |
| 20260506223039 | 64 | 269 | 3.5 | 11.3 | 0.00 | 0.22 | 0.22 | 76 | 1008.6 |
| 20260506222556 | 64 | 298 | 6.1 | 11.3 | 0.00 | 0.22 | 0.22 | 76 | 1008.4 |
| 20260506222029 | 64 | 295 | 4.3 | 10.4 | 0.00 | 0.22 | 0.22 | 77 | 1008.4 |
| 20260506221548 | 64 | 290 | 5.2 | 10.4 | 0.00 | 0.22 | 0.22 | 77 | 1008.3 |
| 20260506221038 | 64 | 296 | 5.2 | 9.6 | 0.01 | 0.22 | 0.22 | 78 | 1008.4 |
| 20260506220540 | 64 | 304 | 3.5 | 9.6 | 0.01 | 0.22 | 0.22 | 79 | 1008.2 |
| 20260506220036 | 64 | 294 | 4.3 | 10.4 | 0.01 | 0.22 | 0.22 | 79 | 1008.1 |
| 20260506215552 | 64 | 275 | 5.2 | 13.0 | 0.01 | 0.22 | 0.22 | 80 | 1008.1 |
| 20260506215025 | 64 | 296 | 6.1 | 13.0 | 0.01 | 0.22 | 0.22 | 82 | 1008.0 |
| 20260506214542 | 65 | 297 | 4.3 | 11.3 | 0.01 | 0.22 | 0.22 | 84 | 1007.9 |
| 20260506214042 | 65 | 278 | 4.3 | 11.3 | 0.01 | 0.22 | 0.22 | 84 | 1007.8 |
| 20260506213532 | 65 | 273 | 4.3 | 8.7 | 0.01 | 0.22 | 0.22 | 86 | 1007.8 |
| 20260506213027 | 65 | 260 | 3.5 | 9.6 | 0.01 | 0.22 | 0.22 | 86 | 1007.7 |
| 20260506212604 | 65 | 256 | 4.3 | 9.6 | 0.01 | 0.22 | 0.22 | 85 | 1007.6 |
| 20260506212039 | 65 | 239 | 5.2 | 8.7 | 0.01 | 0.22 | 0.22 | 85 | 1007.6 |
| 20260506211530 | 66 | 261 | 3.5 | 9.6 | 0.01 | 0.22 | 0.22 | 84 | 1007.5 |
| 20260506211025 | 66 | 230 | 4.3 | 7.8 | 0.00 | 0.21 | 0.21 | 84 | 1007.3 |
| 20260506210543 | 66 | 269 | 3.5 | 7.8 | 0.00 | 0.21 | 0.21 | 84 | 1007.2 |
| 20260506210038 | 66 | 233 | 1.7 | 7.8 | 0.00 | 0.21 | 0.21 | 84 | 1007.1 |
| 20260506205529 | 66 | 217 | 2.6 | 7.8 | 0.00 | 0.21 | 0.21 | 84 | 1007.1 |
| 20260506205026 | 66 | 229 | 0.9 | 8.7 | 0.00 | 0.21 | 0.21 | 82 | 1007.0 |
| 20260506204543 | 67 | 244 | 4.3 | 8.7 | 0.00 | 0.21 | 0.21 | 82 | 1007.1 |
| 20260506204041 | 67 | 185 | 3.5 | 8.7 | 0.00 | 0.21 | 0.21 | 81 | 1007.0 |
| 20260506203538 | 67 | 240 | 3.5 | 8.7 | 0.00 | 0.21 | 0.21 | 82 | 1007.0 |
| 20260506203043 | 67 | 246 | 2.6 | 6.1 | 0.00 | 0.21 | 0.21 | 82 | 1006.9 |
| 20260506202535 | 67 | 197 | 3.5 | 7.8 | 0.00 | 0.21 | 0.21 | 81 | 1006.8 |
| 20260506202030 | 68 | 128 | 2.6 | 7.8 | 0.00 | 0.21 | 0.21 | 80 | 1006.8 |
| 20260506201547 | 68 | 226 | 1.7 | 8.7 | 0.00 | 0.21 | 0.21 | 80 | 1006.8 |
| 20260506201044 | 68 | 226 | 1.7 | 8.7 | 0.00 | 0.21 | 0.21 | 82 | 1006.8 |
| 20260506200541 | 68 | 215 | 3.5 | 8.7 | 0.00 | 0.21 | 0.21 | 82 | 1006.8 |
| 20260506200058 | 68 | 218 | 3.5 | 8.7 | 0.00 | 0.21 | 0.21 | 81 | 1006.8 |
| 20260506195529 | 68 | 194 | 4.3 | 8.7 | 0.00 | 0.21 | 0.21 | 83 | 1006.9 |
| 20260506195026 | 68 | 246 | 3.5 | 10.4 | 0.00 | 0.21 | 0.21 | 84 | 1007.0 |
| 20260506194603 | 67 | 219 | 2.6 | 10.4 | 0.00 | 0.21 | 0.21 | 84 | 1007.0 |
| 20260506194036 | 67 | 181 | 3.5 | 10.4 | 0.00 | 0.21 | 0.21 | 84 | 1007.0 |
| 20260506193552 | 67 | 191 | 4.3 | 9.6 | 0.00 | 0.21 | 0.21 | 88 | 1007.0 |
| 20260506193026 | 66 | 207 | 3.5 | 10.4 | 0.00 | 0.21 | 0.21 | 89 | 1007.0 |
| 20260506192544 | 66 | 193 | 7.8 | 10.4 | 0.00 | 0.21 | 0.21 | 89 | 1006.9 |
| 20260506192042 | 65 | 171 | 7.8 | 9.6 | 0.00 | 0.21 | 0.21 | 90 | 1006.7 |
| 20260506191539 | 65 | 167 | 6.1 | 7.8 | 0.00 | 0.21 | 0.21 | 90 | 1006.9 |
| 20260506191032 | 65 | 234 | 4.3 | 7.8 | 0.00 | 0.21 | 0.21 | 90 | 1007.1 |
| 20260506190525 | 64 | 198 | 2.6 | 7.8 | 0.00 | 0.21 | 0.21 | 90 | 1007.3 |
| 20260506190045 | 64 | 206 | 5.2 | 7.8 | 0.00 | 0.21 | 0.21 | 89 | 1007.2 |
| 20260506185539 | 64 | 222 | 3.5 | 7.0 | 0.00 | 0.21 | 0.21 | 89 | 1007.3 |
| 20260506185035 | 64 | 200 | 1.7 | 7.8 | 0.00 | 0.21 | 0.21 | 90 | 1007.3 |
| 20260506184532 | 64 | 199 | 1.7 | 7.8 | 0.00 | 0.21 | 0.21 | 89 | 1007.4 |
| 20260506184027 | 64 | 182 | 2.6 | 8.7 | 0.00 | 0.21 | 0.21 | 89 | 1007.5 |
| 20260506183544 | 64 | 178 | 1.7 | 9.6 | 0.00 | 0.21 | 0.21 | 89 | 1007.4 |
| 20260506183044 | 64 | 196 | 3.5 | 10.4 | 0.00 | 0.21 | 0.21 | 89 | 1007.6 |
| 20260506182542 | 64 | 218 | 3.5 | 10.4 | 0.00 | 0.21 | 0.21 | 89 | 1007.7 |
| 20260506182037 | 64 | 213 | 6.1 | 9.6 | 0.00 | 0.21 | 0.21 | 88 | 1007.6 |
| 20260506181530 | 64 | 182 | 3.5 | 9.6 | 0.00 | 0.21 | 0.21 | 88 | 1007.6 |
| 20260506181025 | 65 | 211 | 3.5 | 9.6 | 0.00 | 0.21 | 0.21 | 87 | 1007.7 |
| 20260506180542 | 65 | 266 | 3.5 | 9.6 | 0.00 | 0.21 | 0.21 | 86 | 1007.7 |
| 20260506175535 | 65 | 204 | 5.2 | 11.3 | 0.00 | 0.21 | 0.21 | 84 | 1007.5 |
| 20260506175026 | 65 | 233 | 6.1 | 12.2 | 0.00 | 0.21 | 0.21 | 84 | 1007.5 |
| 20260506174542 | 65 | 215 | 5.2 | 12.2 | 0.00 | 0.21 | 0.21 | 84 | 1007.4 |
| 20260506174038 | 65 | 200 | 5.2 | 9.6 | 0.00 | 0.21 | 0.21 | 84 | 1007.3 |
| 20260506173531 | 65 | 192 | 6.1 | 11.3 | 0.00 | 0.21 | 0.21 | 85 | 1007.4 |
| 20260506173026 | 65 | 186 | 5.2 | 11.3 | 0.00 | 0.21 | 0.21 | 85 | 1007.4 |
| 20260506172542 | 65 | 198 | 7.0 | 11.3 | 0.00 | 0.21 | 0.21 | 85 | 1007.3 |
| 20260506172039 | 65 | 192 | 6.1 | 11.3 | 0.00 | 0.21 | 0.21 | 85 | 1007.3 |
| 20260506171532 | 65 | 179 | 5.2 | 12.2 | 0.00 | 0.21 | 0.21 | 85 | 1007.4 |
| 20260506171025 | 64 | 185 | 6.1 | 11.3 | 0.00 | 0.21 | 0.21 | 85 | 1007.3 |
| 20260506170544 | 64 | 196 | 8.7 | 11.3 | 0.00 | 0.21 | 0.21 | 85 | 1007.3 |
| 20260506170044 | 64 | 196 | 6.1 | 11.3 | 0.00 | 0.21 | 0.21 | 86 | 1007.3 |
| 20260506165537 | 64 | 188 | 6.1 | 11.3 | 0.00 | 0.21 | 0.21 | 86 | 1007.3 |
| 20260506165033 | 64 | 210 | 5.2 | 10.4 | 0.00 | 0.21 | 0.21 | 86 | 1007.3 |
| 20260506164525 | 63 | 182 | 6.1 | 10.4 | 0.00 | 0.21 | 0.21 | 87 | 1007.5 |
| 20260506164045 | 63 | 219 | 5.2 | 9.6 | 0.00 | 0.21 | 0.21 | 87 | 1007.5 |
| 20260506163540 | 63 | 188 | 4.3 | 10.4 | 0.00 | 0.21 | 0.21 | 87 | 1007.4 |
| 20260506163036 | 63 | 186 | 5.2 | 10.4 | 0.00 | 0.21 | 0.21 | 87 | 1007.4 |
| 20260506162528 | 63 | 223 | 4.3 | 10.4 | 0.00 | 0.21 | 0.21 | 87 | 1007.5 |
| 20260506162047 | 63 | 229 | 4.3 | 10.4 | 0.00 | 0.21 | 0.21 | 87 | 1007.4 |
| 20260506161546 | 63 | 215 | 3.5 | 11.3 | 0.00 | 0.21 | 0.21 | 87 | 1007.4 |
| 20260506161045 | 63 | 200 | 7.8 | 11.3 | 0.00 | 0.21 | 0.21 | 87 | 1007.4 |
| 20260506160542 | 63 | 220 | 7.0 | 12.2 | 0.00 | 0.21 | 0.21 | 88 | 1007.5 |
| 20260506160045 | 63 | 199 | 7.8 | 18.2 | 0.00 | 0.21 | 0.21 | 88 | 1007.4 |
| 20260506155538 | 63 | 184 | 9.6 | 18.2 | 0.00 | 0.21 | 0.21 | 88 | 1007.3 |
| 20260506155040 | 63 | 175 | 11.3 | 18.2 | 0.00 | 0.21 | 0.21 | 88 | 1007.3 |
| 20260506154541 | 63 | 196 | 9.6 | 17.4 | 0.00 | 0.21 | 0.21 | 90 | 1007.3 |
| 20260506154037 | 62 | 162 | 12.2 | 18.2 | 0.00 | 0.21 | 0.21 | 90 | 1007.2 |
| 20260506153556 | 62 | 184 | 8.7 | 14.8 | 0.00 | 0.21 | 0.21 | 91 | 1006.9 |
| 20260506153031 | 62 | 190 | 9.6 | 13.9 | 0.01 | 0.21 | 0.21 | 91 | 1007.0 |
| 20260506152525 | 62 | 178 | 7.8 | 13.9 | 0.02 | 0.21 | 0.21 | 91 | 1007.1 |
| 20260506152044 | 62 | 180 | 11.3 | 13.9 | 0.04 | 0.21 | 0.21 | 91 | 1007.0 |
| 20260506151544 | 62 | 180 | 8.7 | 17.4 | 0.05 | 0.21 | 0.21 | 91 | 1007.1 |
| 20260506151104 | 62 | 177 | 9.6 | 17.4 | 0.06 | 0.21 | 0.21 | 92 | 1007.2 |
| 20260506150534 | 62 | 180 | 11.3 | 14.8 | 0.07 | 0.21 | 0.21 | 92 | 1007.1 |
| 20260506150031 | 61 | 156 | 11.3 | 13.0 | 0.08 | 0.21 | 0.21 | 92 | 1006.9 |
| 20260506145550 | 61 | 182 | 9.6 | 13.0 | 0.09 | 0.21 | 0.21 | 92 | 1006.7 |
| 20260506145026 | 61 | 175 | 8.7 | 13.0 | 0.10 | 0.21 | 0.21 | 92 | 1006.8 |
| 20260506144540 | 61 | 163 | 10.4 | 13.9 | 0.10 | 0.21 | 0.21 | 91 | 1006.8 |
| 20260506144037 | 61 | 176 | 10.4 | 13.9 | 0.11 | 0.21 | 0.21 | 91 | 1007.0 |
| 20260506143531 | 61 | 171 | 9.6 | 13.0 | 0.11 | 0.20 | 0.20 | 91 | 1007.3 |
| 20260506143027 | 60 | 164 | 9.6 | 14.8 | 0.13 | 0.20 | 0.20 | 91 | 1007.4 |
| 20260506142547 | 60 | 171 | 8.7 | 12.2 | 0.11 | 0.18 | 0.18 | 90 | 1007.5 |
| 20260506142044 | 60 | 164 | 10.4 | 13.9 | 0.11 | 0.17 | 0.17 | 90 | 1007.6 |
| 20260506141541 | 61 | 167 | 9.6 | 16.5 | 0.10 | 0.16 | 0.16 | 90 | 1007.9 |
| 20260506141038 | 61 | 188 | 10.4 | 13.0 | 0.08 | 0.14 | 0.14 | 89 | 1008.1 |
| 20260506140557 | 61 | 186 | 8.7 | 13.0 | 0.08 | 0.14 | 0.14 | 89 | 1008.0 |
| 20260506140040 | 61 | 228 | 8.7 | 13.9 | 0.08 | 0.13 | 0.13 | 88 | 1008.0 |
| 20260506135533 | 61 | 173 | 8.7 | 12.2 | 0.07 | 0.12 | 0.12 | 88 | 1007.8 |
| 20260506135025 | 61 | 179 | 7.8 | 13.0 | 0.07 | 0.11 | 0.11 | 88 | 1007.9 |
| 20260506134605 | 61 | 179 | 9.6 | 15.6 | 0.07 | 0.11 | 0.11 | 87 | 1007.8 |
| 20260506134043 | 61 | 184 | 7.8 | 13.9 | 0.06 | 0.10 | 0.10 | 87 | 1007.7 |
| 20260506133541 | 61 | 197 | 8.7 | 13.9 | 0.05 | 0.09 | 0.09 | 86 | 1007.6 |
| 20260506133036 | 62 | 213 | 9.6 | 13.9 | 0.03 | 0.07 | 0.07 | 86 | 1007.7 |
| 20260506132530 | 62 | 194 | 9.6 | 13.9 | 0.03 | 0.07 | 0.07 | 86 | 1007.6 |
| 20260506132047 | 62 | 190 | 7.8 | 14.8 | 0.02 | 0.06 | 0.06 | 86 | 1007.6 |
| 20260506131536 | 62 | 144 | 10.4 | 14.8 | 0.02 | 0.06 | 0.06 | 85 | 1007.6 |
| 20260506131027 | 61 | 186 | 7.8 | 12.2 | 0.03 | 0.06 | 0.06 | 86 | 1007.5 |
| 20260506130541 | 61 | 164 | 8.7 | 12.2 | 0.03 | 0.06 | 0.06 | 85 | 1007.5 |
| 20260506130036 | 61 | 170 | 7.8 | 11.3 | 0.02 | 0.05 | 0.05 | 84 | 1007.6 |
| 20260506125530 | 62 | 187 | 7.8 | 12.2 | 0.02 | 0.05 | 0.05 | 84 | 1007.5 |
| 20260506125029 | 62 | 160 | 7.0 | 10.4 | 0.01 | 0.04 | 0.04 | 84 | 1007.5 |
| 20260506124547 | 62 | 147 | 8.7 | 10.4 | 0.01 | 0.04 | 0.04 | 83 | 1007.4 |
| 20260506124044 | 62 | 185 | 7.0 | 13.0 | 0.01 | 0.04 | 0.04 | 83 | 1007.4 |
| 20260506123543 | 61 | 158 | 7.0 | 13.0 | 0.01 | 0.04 | 0.04 | 83 | 1007.3 |
| 20260506123044 | 61 | 180 | 9.6 | 13.9 | 0.01 | 0.04 | 0.04 | 84 | 1007.4 |
| 20260506122537 | 61 | 155 | 9.6 | 13.9 | 0.01 | 0.04 | 0.04 | 84 | 1007.3 |
| 20260506122035 | 61 | 180 | 9.6 | 11.3 | 0.02 | 0.04 | 0.04 | 84 | 1007.3 |
| 20260506121531 | 61 | 165 | 8.7 | 10.4 | 0.02 | 0.04 | 0.04 | 83 | 1007.8 |
| 20260506121025 | 61 | 166 | 7.0 | 9.6 | 0.01 | 0.03 | 0.03 | 83 | 1007.8 |
| 20260506120542 | 61 | 172 | 7.0 | 10.4 | 0.02 | 0.03 | 0.03 | 83 | 1007.8 |
| 20260506120037 | 61 | 188 | 7.8 | 10.4 | 0.02 | 0.03 | 0.03 | 82 | 1007.7 |
| 20260506115555 | 61 | 190 | 7.0 | 13.9 | 0.02 | 0.03 | 0.03 | 82 | 1007.7 |
| 20260506115027 | 61 | 166 | 7.8 | 14.8 | 0.03 | 0.03 | 0.03 | 81 | 1007.7 |
| 20260506114539 | 61 | 176 | 8.7 | 13.0 | 0.03 | 0.03 | 0.03 | 80 | 1007.8 |
| 20260506114040 | 61 | 173 | 8.7 | 13.9 | 0.03 | 0.03 | 0.03 | 80 | 1007.8 |
| 20260506113527 | 61 | 185 | 7.8 | 13.9 | 0.03 | 0.03 | 0.03 | 79 | 1008.0 |
| 20260506113046 | 61 | 197 | 7.8 | 12.2 | 0.03 | 0.03 | 0.03 | 79 | 1008.0 |
| 20260506112603 | 62 | 189 | 7.0 | 12.2 | 0.02 | 0.02 | 0.02 | 78 | 1008.0 |
| 20260506112056 | 62 | 186 | 6.1 | 11.3 | 0.02 | 0.02 | 0.02 | 77 | 1007.9 |
| 20260506111528 | 62 | 186 | 7.8 | 13.0 | 0.02 | 0.02 | 0.02 | 75 | 1007.8 |
| 20260506111048 | 63 | 175 | 7.8 | 13.9 | 0.01 | 0.01 | 0.01 | 74 | 1007.8 |
| 20260506110544 | 63 | 184 | 9.6 | 13.9 | 0.01 | 0.01 | 0.01 | 72 | 1007.9 |
| 20260506110044 | 64 | 188 | 9.6 | 14.8 | 0.01 | 0.01 | 0.01 | 69 | 1007.7 |
| 20260506105538 | 65 | 186 | 9.6 | 14.8 | 0.00 | 0.00 | 0.00 | 67 | 1007.4 |
| 20260506105031 | 65 | 180 | 9.6 | 15.6 | 0.00 | 0.00 | 0.00 | 66 | 1007.2 |
| 20260506104524 | 65 | 187 | 7.8 | 12.2 | 0.00 | 0.00 | 0.00 | 65 | 1007.1 |
| 20260506104106 | 66 | 159 | 7.8 | 13.9 | 0.00 | 0.00 | 0.00 | 63 | 1007.0 |
| 20260506103538 | 66 | 156 | 9.6 | 13.9 | 0.00 | 0.00 | 0.00 | 61 | 1007.0 |
| 20260506103038 | 66 | 213 | 9.6 | 17.4 | 0.00 | 0.00 | 0.00 | 60 | 1007.0 |
| 20260506102534 | 66 | 169 | 9.6 | 18.2 | 0.00 | 0.00 | 0.00 | 59 | 1007.0 |
| 20260506102025 | 66 | 186 | 9.6 | 13.0 | 0.00 | 0.00 | 0.00 | 58 | 1006.8 |
| 20260506101542 | 66 | 194 | 8.7 | 12.2 | 0.00 | 0.00 | 0.00 | 58 | 1006.7 |
| 20260506101042 | 66 | 182 | 7.8 | 11.3 | 0.00 | 0.00 | 0.00 | 58 | 1006.7 |
| 20260506100535 | 66 | 183 | 7.8 | 11.3 | 0.00 | 0.00 | 0.00 | 58 | 1006.7 |
| 20260506100041 | 66 | 182 | 7.8 | 11.3 | 0.00 | 0.00 | 0.00 | 58 | 1006.5 |
| 20260506095538 | 66 | 186 | 8.7 | 11.3 | 0.00 | 0.00 | 0.00 | 58 | 1006.4 |
| 20260506095033 | 66 | 183 | 7.0 | 9.6 | 0.00 | 0.00 | 0.00 | 58 | 1006.4 |
| 20260506094524 | 66 | 188 | 7.0 | 12.2 | 0.00 | 0.00 | 0.00 | 58 | 1006.5 |
| 20260506094106 | 66 | 161 | 7.8 | 12.2 | 0.00 | 0.00 | 0.00 | 58 | 1006.4 |
| 20260506093540 | 66 | 194 | 7.8 | 10.4 | 0.00 | 0.00 | 0.00 | 58 | 1006.6 |
| 20260506093043 | 67 | 202 | 7.0 | 13.9 | 0.00 | 0.00 | 0.00 | 58 | 1006.6 |
| 20260506092542 | 67 | 176 | 9.6 | 13.9 | 0.00 | 0.00 | 0.00 | 57 | 1006.5 |
| 20260506092104 | 67 | 187 | 9.6 | 12.2 | 0.00 | 0.00 | 0.00 | 57 | 1006.6 |
| 20260506091541 | 67 | 187 | 8.7 | 11.3 | 0.00 | 0.00 | 0.00 | 57 | 1006.5 |
| 20260506091037 | 67 | 176 | 8.7 | 12.2 | 0.00 | 0.00 | 0.00 | 57 | 1006.7 |
| 20260506090530 | 67 | 194 | 8.7 | 12.2 | 0.00 | 0.00 | 0.00 | 57 | 1006.7 |
| 20260506090028 | 67 | 177 | 9.6 | 13.9 | 0.00 | 0.00 | 0.00 | 57 | 1006.6 |
| 20260506085539 | 67 | 167 | 7.8 | 11.3 | 0.00 | 0.00 | 0.00 | 56 | 1006.7 |
| 20260506085034 | 67 | 167 | 7.8 | 11.3 | 0.00 | 0.00 | 0.00 | 56 | 1006.9 |
| 20260506084553 | 67 | 158 | 7.8 | 11.3 | 0.00 | 0.00 | 0.00 | 56 | 1007.0 |
| 20260506084026 | 67 | 184 | 7.0 | 11.3 | 0.00 | 0.00 | 0.00 | 55 | 1007.1 |
| 20260506083541 | 67 | 194 | 7.8 | 11.3 | 0.00 | 0.00 | 0.00 | 55 | 1007.1 |
| 20260506083043 | 67 | 161 | 8.7 | 13.0 | 0.00 | 0.00 | 0.00 | 55 | 1007.0 |
| 20260506082538 | 67 | 190 | 8.7 | 13.0 | 0.00 | 0.00 | 0.00 | 55 | 1007.0 |
| 20260506082100 | 67 | 178 | 7.0 | 9.6 | 0.00 | 0.00 | 0.00 | 55 | 1007.0 |
| 20260506081537 | 67 | 173 | 6.1 | 10.4 | 0.00 | 0.00 | 0.00 | 55 | 1007.1 |
| 20260506081041 | 67 | 169 | 7.0 | 9.6 | 0.00 | 0.00 | 0.00 | 54 | 1007.1 |
| 20260506080534 | 67 | 155 | 7.8 | 9.6 | 0.00 | 0.00 | 0.00 | 54 | 1007.1 |
| 20260506073043 | 68 | 176 | 7.0 | 11.3 | 0.00 | 0.00 | 0.00 | 51 | 1006.9 |
| 20260506072534 | 68 | 134 | 7.0 | 11.3 | 0.00 | 0.00 | 0.00 | 50 | 1006.9 |
| 20260506072027 | 68 | 163 | 7.0 | 11.3 | 0.00 | 0.00 | 0.00 | 50 | 1007.0 |
| 20260506071543 | 68 | 136 | 9.6 | 13.0 | 0.00 | 0.00 | 0.00 | 50 | 1007.1 |
| 20260506071038 | 68 | 175 | 7.0 | 10.4 | 0.00 | 0.00 | 0.00 | 50 | 1006.9 |
| 20260506070532 | 68 | 169 | 7.8 | 13.0 | 0.00 | 0.00 | 0.00 | 49 | 1007.1 |
| 20260506062033 | 68 | 143 | 7.0 | 12.2 | 0.00 | 0.00 | 0.00 | 49 | 1007.6 |
| 20260506061525 | 68 | 157 | 7.0 | 13.0 | 0.00 | 0.00 | 0.00 | 49 | 1007.8 |
| 20260506061041 | 68 | 148 | 5.2 | 13.0 | 0.00 | 0.00 | 0.00 | 49 | 1007.8 |
| 20260506060539 | 68 | 143 | 7.8 | 12.2 | 0.00 | 0.00 | 0.00 | 49 | 1007.9 |
| 20260506051033 | 67 | 139 | 4.3 | 7.8 | 0.00 | 0.00 | 0.00 | 48 | 1008.7 |
| 20260506050528 | 67 | 135 | 4.3 | 7.0 | 0.00 | 0.00 | 0.00 | 47 | 1008.6 |
| 20260506045043 | 67 | 153 | 4.3 | 8.7 | 0.00 | 0.00 | 0.00 | 46 | 1008.6 |
| 20260506044540 | 67 | 155 | 5.2 | 8.7 | 0.00 | 0.00 | 0.00 | 46 | 1008.7 |
| 20260506044045 | 67 | 165 | 6.1 | 7.8 | 0.00 | 0.00 | 0.00 | 45 | 1008.6 |
| 20260506043604 | 68 | 155 | 6.1 | 9.6 | 0.00 | 0.00 | 0.00 | 45 | 1008.7 |
| 20260506043041 | 68 | 142 | 5.2 | 9.6 | 0.00 | 0.00 | 0.00 | 45 | 1008.6 |
| 20260506042534 | 68 | 162 | 6.1 | 8.7 | 0.00 | 0.00 | 0.00 | 45 | 1008.6 |
| 20260506042030 | 68 | 171 | 7.0 | 7.8 | 0.00 | 0.00 | 0.00 | 45 | 1008.7 |
| 20260506041524 | 68 | 158 | 7.0 | 9.6 | 0.00 | 0.00 | 0.00 | 45 | 1008.6 |
| 20260506041044 | 68 | 172 | 7.0 | 9.6 | 0.00 | 0.00 | 0.00 | 44 | 1008.7 |
| 20260506040543 | 68 | 175 | 6.1 | 8.7 | 0.00 | 0.00 | 0.00 | 44 | 1008.6 |
| 20260506040041 | 68 | 154 | 5.2 | 8.7 | 0.00 | 0.00 | 0.00 | 44 | 1008.6 |
| 20260506035539 | 68 | 153 | 3.5 | 4.3 | 0.00 | 0.00 | 0.00 | 44 | 1008.5 |
| 20260506035033 | 68 | 142 | 3.5 | 4.3 | 0.00 | 0.00 | 0.00 | 44 | 1008.4 |
| 20260506034525 | 68 | 149 | 2.6 | 4.3 | 0.00 | 0.00 | 0.00 | 45 | 1008.4 |
| 20260506034105 | 68 | 165 | 3.5 | 6.1 | 0.00 | 0.00 | 0.00 | 44 | 1008.4 |
| 20260506033541 | 68 | 167 | 4.3 | 6.1 | 0.00 | 0.00 | 0.00 | 44 | 1008.6 |
| 20260506033041 | 68 | 157 | 4.3 | 6.1 | 0.00 | 0.00 | 0.00 | 44 | 1008.6 |
| 20260506032534 | 68 | 173 | 4.3 | 6.1 | 0.00 | 0.00 | 0.00 | 43 | 1008.5 |
| 20260506032024 | 68 | 174 | 4.3 | 5.2 | 0.00 | 0.00 | 0.00 | 44 | 1008.5 |
| 20260506031539 | 68 | 170 | 4.3 | 6.1 | 0.00 | 0.00 | 0.00 | 44 | 1008.4 |
| 20260506031038 | 68 | 160 | 4.3 | 6.1 | 0.00 | 0.00 | 0.00 | 43 | 1008.4 |
| 20260506030531 | 68 | 145 | 4.3 | 6.1 | 0.00 | 0.00 | 0.00 | 43 | 1008.4 |
| 20260506030027 | 69 | 150 | 3.5 | 6.1 | 0.00 | 0.00 | 0.00 | 43 | 1008.4 |
| 20260506025544 | 69 | 161 | 2.6 | 6.1 | 0.00 | 0.00 | 0.00 | 43 | 1008.4 |
| 20260506025039 | 69 | 146 | 3.5 | 7.0 | 0.00 | 0.00 | 0.00 | 43 | 1008.5 |
| 20260506024558 | 70 | 159 | 5.2 | 7.8 | 0.00 | 0.00 | 0.00 | 41 | 1008.6 |
| 20260506024033 | 70 | 165 | 6.1 | 7.8 | 0.00 | 0.00 | 0.00 | 41 | 1008.5 |
| 20260506023524 | 70 | 168 | 5.2 | 7.8 | 0.00 | 0.00 | 0.00 | 40 | 1008.5 |
| 20260506023045 | 70 | 153 | 4.3 | 8.7 | 0.00 | 0.00 | 0.00 | 41 | 1008.4 |
| 20260506022542 | 71 | 173 | 5.2 | 7.0 | 0.00 | 0.00 | 0.00 | 40 | 1008.5 |
| 20260506022043 | 71 | 161 | 6.1 | 8.7 | 0.00 | 0.00 | 0.00 | 39 | 1008.6 |
| 20260506021540 | 71 | 162 | 7.0 | 9.6 | 0.00 | 0.00 | 0.00 | 39 | 1008.5 |
| 20260506021034 | 72 | 167 | 7.0 | 9.6 | 0.00 | 0.00 | 0.00 | 39 | 1008.5 |
| 20260506020525 | 72 | 162 | 7.8 | 11.3 | 0.00 | 0.00 | 0.00 | 38 | 1008.4 |
| 20260506020044 | 72 | 161 | 8.7 | 11.3 | 0.00 | 0.00 | 0.00 | 39 | 1008.4 |
| 20260506015541 | 72 | 186 | 9.6 | 11.3 | 0.00 | 0.00 | 0.00 | 39 | 1008.4 |
| 20260506015037 | 72 | 165 | 9.6 | 11.3 | 0.00 | 0.00 | 0.00 | 39 | 1008.4 |
| 20260506014533 | 72 | 173 | 8.7 | 12.2 | 0.00 | 0.00 | 0.00 | 39 | 1008.4 |
| 20260506014026 | 72 | 151 | 8.7 | 11.3 | 0.00 | 0.00 | 0.00 | 40 | 1008.2 |
| 20260506013541 | 72 | 167 | 7.8 | 11.3 | 0.00 | 0.00 | 0.00 | 40 | 1008.3 |
| 20260506013034 | 72 | 159 | 7.8 | 12.2 | 0.00 | 0.00 | 0.00 | 40 | 1008.2 |
| 20260506012525 | 72 | 158 | 7.8 | 10.4 | 0.00 | 0.00 | 0.00 | 40 | 1008.0 |
| 20260506012038 | 72 | 148 | 7.0 | 9.6 | 0.00 | 0.00 | 0.00 | 40 | 1008.0 |